Regional Weather Roundup
Issued by NWS

Home | Current Version | Previous Version | Graphics & Text | Print | Product List | Glossary On
Versions: 1 2 3 4 5 6 7 8 9 10 11 12 13 14 15 16 17 18 19 20 21 22 23 24 25 26 27 28
000
ASUS45 KSLC 241810
RWRUT

UTAH REGIONAL WEATHER ROUNDUP
NATIONAL WEATHER SERVICE SALT LAKE CITY UT
1200 PM MDT FRI OCT 24 2014

UTZ001>011-023>025-241900-

NORTHERN UTAH

CITY           SKY/WX    TMP DP  RH WIND       PRES   REMARKS
BRIGHAM CITY   SUNNY     64  31  28 S3        30.19F
HILL AFB       SUNNY     67  34  29 S10       30.21S
LOGAN          SUNNY     57  35  43 CALM      30.20F
OGDEN          SUNNY     69  32  25 S12       30.19S
PROVO AIRPORT  SUNNY     72  34  25 SE5       30.21F
SALT LAKE CITY SUNNY     66  41  40 NW5       30.17F
VERNAL         SUNNY     58  39  49 VRB6      30.30F
WENDOVER       SUNNY     57  36  44 E5        30.19S
HEBER CITY     SUNNY     70  30  23 SW9       30.24F
WEST JORDAN    SUNNY     72  43  35 SE16      30.20S

$$

UTZ012>022-026-027-241900-

SOUTHERN/CENTRAL UTAH

CITY           SKY/WX    TMP DP  RH WIND       PRES   REMARKS
BLANDING       SUNNY     63  33  32 E3        30.44F
BRYCE CANYON   SUNNY     61  33  35 SE9       30.43S
CEDAR CITY     SUNNY     69  34  27 VRB6      30.28F
DELTA          SUNNY     73  32  22 S22G30    30.21F
HANKSVILLE       N/A     63  32  31 CALM      30.29F
MILFORD        SUNNY     70  34  26 S18       30.24F
MOAB/CYNLANDS  SUNNY     68  33  27 E5        30.26F
PRICE          SUNNY     62  33  33 SE5       30.33S
ST GEORGE      CLEAR     66  34  30 CALM      30.22F
KANAB            N/A     70  34  26 N3        30.33S

$$

REGIONAL REPORTS     COLORADO/ARIZONA

CITY           SKY/WX    TMP DP  RH WIND       PRES   REMARKS
CRAIG, CO      SUNNY     67  34  29 N5        30.32F
GRAND JUNCTION SUNNY     64  34  32 S10       30.30F
RIFLE          SUNNY     57  36  45 CALM      30.34F
MONTROSE       SUNNY     66  36  32 N6        30.35F
CORTEZ         SUNNY     67  32  27 CALM      30.37F
PAGE, AZ       SUNNY     67  33  28 VRB3      30.28F
GRAND CANYON   SUNNY     70  31  23 SW7       30.39S
KINGMAN        SUNNY     79  39  23 CALM      30.19F
FLAGSTAFF      SUNNY     67  25  20 SW9       30.41F

$$

REGIONAL REPORTS    NEVADA/IDAHO/WYOMING

CITY           SKY/WX    TMP DP  RH WIND       PRES   REMARKS
LAS VEGAS, NV  SUNNY     77  36  22 CALM      30.09F
ELY            SUNNY     69  25  19 SE10G21   30.25F
ELKO           SUNNY     60  24  25 W3        30.16F
POCATELLO, ID  SUNNY     64  36  35 VRB3      30.15F
BURLEY         SUNNY     64  38  38 E3        30.11F
EVANSTON, WY   SUNNY     64  25  22 SW22G28   30.29S
ROCK SPRINGS   SUNNY     59  30  33 CALM      30.28F
KEMMERER       SUNNY     61  27  27 W17       30.30S

$$



USA.gov is the U.S. government's official web portal to all federal, state and local government web resources and services.